TimeEST,TemperatureF,Dew PointF,Humidity,Sea Level PressureIn,VisibilityMPH,Wind Direction,Wind SpeedMPH,Gust SpeedMPH,PrecipitationIn,Events,Conditions,WindDirDegrees,DateUTC
12:14 AM,30.7,21.7,69,29.95,10.0,SSW,5.8,-,N/A,,Overcast,210,2012-11-25 05:14:00
12:35 AM,30.2,22.8,74,29.94,4.0,SSW,9.2,-,N/A,Snow,Light Snow,210,2012-11-25 05:35:00
12:54 AM,29.3,24.4,82,29.93,4.0,South,5.8,-,N/A,Snow,Light Snow,170,2012-11-25 05:54:00
1:15 AM,30.2,22.8,74,29.92,10.0,South,8.1,-,N/A,,Overcast,190,2012-11-25 06:15:00
1:34 AM,29.1,24.6,83,29.91,2.5,SSW,9.2,-,N/A,Snow,Light Snow,200,2012-11-25 06:34:00
1:55 AM,28.2,24.8,87,29.89,4.0,South,9.2,-,N/A,Snow,Light Snow,180,2012-11-25 06:55:00
2:14 AM,28.0,25.2,89,29.89,4.0,South,8.1,-,N/A,Snow,Light Snow,180,2012-11-25 07:14:00
2:34 AM,27.5,25.7,93,29.89,2.5,South,6.9,-,N/A,Snow,Light Snow,180,2012-11-25 07:34:00
2:55 AM,27.5,25.9,94,29.88,2.0,South,8.1,-,N/A,Snow,Light Snow,170,2012-11-25 07:55:00
3:14 AM,27.3,25.7,94,29.87,2.5,South,8.1,-,N/A,Snow,Light Snow,180,2012-11-25 08:14:00
3:35 AM,27.3,25.7,94,29.86,2.0,SSE,10.4,-,N/A,Snow,Light Snow,160,2012-11-25 08:35:00
3:54 AM,27.1,25.5,94,29.84,2.0,South,10.4,-,N/A,Snow,Light Snow,170,2012-11-25 08:54:00
4:15 AM,27.1,25.5,94,29.83,2.5,South,8.1,-,N/A,Snow,Light Snow,170,2012-11-25 09:15:00
4:35 AM,27.1,25.7,94,29.82,3.0,South,8.1,-,N/A,Snow,Light Snow,170,2012-11-25 09:35:00
4:54 AM,27.3,25.7,94,29.82,3.0,South,6.9,-,N/A,Snow,Light Snow,170,2012-11-25 09:54:00
5:14 AM,27.5,25.7,93,29.81,2.5,South,9.2,-,N/A,Snow,Light Snow,170,2012-11-25 10:14:00
5:35 AM,27.5,26.1,94,29.80,1.8,South,9.2,-,N/A,Snow,Light Snow,170,2012-11-25 10:35:00
5:55 AM,27.5,26.2,95,29.80,2.0,South,8.1,-,N/A,Snow,Light Snow,170,2012-11-25 10:55:00
6:14 AM,27.5,26.2,95,29.79,3.0,South,8.1,-,N/A,Snow,Light Snow,170,2012-11-25 11:14:00
6:35 AM,27.9,26.2,94,29.78,2.5,South,8.1,-,N/A,Snow,Light Snow,180,2012-11-25 11:35:00
6:54 AM,28.0,26.6,94,29.78,1.5,South,6.9,-,N/A,Snow,Light Snow,170,2012-11-25 11:54:00
7:15 AM,28.2,26.8,94,29.77,3.0,South,6.9,-,N/A,Snow,Light Snow,170,2012-11-25 12:15:00
7:34 AM,28.4,27.1,95,29.77,4.0,South,5.8,-,N/A,Snow,Light Snow,180,2012-11-25 12:34:00
7:53 AM,28.4,27.3,96,29.77,1.8,South,5.8,-,N/A,Snow,Light Snow,180,2012-11-25 12:53:00
8:15 AM,29.1,28.0,96,29.77,0.5,SSW,5.8,-,N/A,Snow,Snow,200,2012-11-25 13:15:00
8:34 AM,30.2,29.3,96,29.77,0.5,SSW,9.2,-,N/A,Snow,Snow,210,2012-11-25 13:34:00
8:55 AM,30.7,29.8,96,29.76,4.0,South,10.4,-,N/A,Snow,Light Snow,180,2012-11-25 13:55:00
9:15 AM,31.1,29.8,95,29.76,5.0,SSW,6.9,-,N/A,Snow,Light Snow,210,2012-11-25 14:15:00
9:34 AM,32.0,30.0,92,29.76,10.0,WSW,3.5,-,N/A,Snow,Light Snow,250,2012-11-25 14:34:00
9:55 AM,32.9,30.4,90,29.76,10.0,North,10.4,-,N/A,,Overcast,350,2012-11-25 14:55:00
10:15 AM,32.9,29.8,88,29.77,5.0,NNW,5.8,-,N/A,Snow,Light Snow,340,2012-11-25 15:15:00
10:34 AM,33.3,29.7,87,29.77,7.0,NW,9.2,-,N/A,Snow,Light Snow,320,2012-11-25 15:34:00
10:55 AM,33.1,29.3,86,29.77,5.0,NW,6.9,-,N/A,Snow,Light Snow,310,2012-11-25 15:55:00
11:15 AM,33.1,29.3,86,29.77,7.0,WSW,6.9,-,N/A,Snow,Light Snow,240,2012-11-25 16:15:00
11:35 AM,33.3,27.5,79,29.77,7.0,West,12.7,-,N/A,,Overcast,270,2012-11-25 16:35:00
11:55 AM,33.1,26.2,76,29.76,10.0,WSW,9.2,-,N/A,,Overcast,250,2012-11-25 16:55:00
12:15 PM,32.9,26.6,78,29.76,10.0,WSW,10.4,-,N/A,,Overcast,250,2012-11-25 17:15:00
12:35 PM,32.9,26.6,78,29.76,10.0,West,15.0,18.4,N/A,,Overcast,270,2012-11-25 17:35:00
12:55 PM,32.9,26.4,77,29.76,10.0,West,15.0,-,N/A,,Overcast,270,2012-11-25 17:55:00
1:15 PM,32.9,26.2,76,29.76,10.0,West,16.1,21.9,N/A,,Overcast,270,2012-11-25 18:15:00
1:35 PM,32.9,25.7,75,29.76,10.0,West,15.0,-,N/A,,Overcast,270,2012-11-25 18:35:00
1:55 PM,32.9,25.7,75,29.76,10.0,West,16.1,-,N/A,,Overcast,280,2012-11-25 18:55:00
2:15 PM,32.9,25.5,74,29.76,10.0,West,16.1,26.5,N/A,,Overcast,270,2012-11-25 19:15:00
2:35 PM,32.9,25.2,73,29.76,10.0,WNW,17.3,21.9,N/A,,Overcast,290,2012-11-25 19:35:00
2:54 PM,32.9,25.5,74,29.77,10.0,WNW,15.0,19.6,N/A,,Overcast,290,2012-11-25 19:54:00
3:15 PM,32.9,26.2,76,29.77,10.0,West,18.4,24.2,N/A,,Overcast,280,2012-11-25 20:15:00
3:35 PM,33.1,26.1,75,29.78,10.0,WNW,18.4,25.3,N/A,,Overcast,300,2012-11-25 20:35:00
3:54 PM,32.9,25.7,75,29.79,7.0,WNW,19.6,28.8,N/A,,Overcast,290,2012-11-25 20:54:00
4:15 PM,33.1,25.7,74,29.80,7.0,WNW,16.1,21.9,N/A,Snow,Light Snow,300,2012-11-25 21:15:00
4:35 PM,33.1,25.5,74,29.80,7.0,WNW,16.1,23.0,N/A,,Overcast,300,2012-11-25 21:35:00
4:54 PM,33.1,25.0,72,29.81,10.0,WNW,17.3,25.3,N/A,,Overcast,290,2012-11-25 21:54:00
5:13 PM,33.4,24.8,71,29.82,10.0,WNW,17.3,25.3,N/A,,Overcast,300,2012-11-25 22:13:00
5:34 PM,33.8,24.6,69,29.82,10.0,WNW,19.6,25.3,N/A,,Overcast,290,2012-11-25 22:34:00
5:54 PM,33.4,25.0,71,29.83,10.0,WNW,18.4,26.5,N/A,,Overcast,290,2012-11-25 22:54:00
6:15 PM,33.3,24.1,69,29.84,10.0,WNW,18.4,24.2,N/A,,Overcast,290,2012-11-25 23:15:00
6:35 PM,33.3,23.0,66,29.85,10.0,WNW,13.8,24.2,N/A,,Overcast,300,2012-11-25 23:35:00
6:54 PM,33.3,23.4,67,29.86,10.0,WNW,18.4,25.3,N/A,,Overcast,290,2012-11-25 23:54:00
7:15 PM,32.9,24.8,72,29.87,10.0,WNW,19.6,25.3,N/A,,Overcast,290,2012-11-26 00:15:00
7:34 PM,33.1,25.3,73,29.87,7.0,WNW,19.6,24.2,N/A,Snow,Light Snow,290,2012-11-26 00:34:00
7:55 PM,32.7,25.5,75,29.87,7.0,West,20.7,29.9,N/A,,Overcast,280,2012-11-26 00:55:00
8:14 PM,32.9,24.3,71,29.87,10.0,West,18.4,24.2,N/A,,Overcast,280,2012-11-26 01:14:00
8:34 PM,32.9,23.7,69,29.88,7.0,WNW,18.4,28.8,N/A,,Overcast,290,2012-11-26 01:34:00
8:55 PM,32.0,23.0,69,29.89,7.0,WNW,23.0,32.2,N/A,,Overcast,290,2012-11-26 01:55:00
9:15 PM,32.0,22.8,69,29.89,7.0,WNW,19.6,29.9,N/A,,Overcast,300,2012-11-26 02:15:00
9:34 PM,32.0,23.4,70,29.89,7.0,WNW,19.6,24.2,N/A,Snow,Light Snow,290,2012-11-26 02:34:00
9:55 PM,32.0,23.7,71,29.90,5.0,WNW,19.6,28.8,N/A,Snow,Light Snow,300,2012-11-26 02:55:00
10:15 PM,31.6,22.8,70,29.91,5.0,WNW,21.9,28.8,N/A,,Haze,300,2012-11-26 03:15:00
10:35 PM,31.5,21.9,68,29.92,7.0,WNW,20.7,28.8,N/A,,Overcast,290,2012-11-26 03:35:00
10:55 PM,31.1,22.5,70,29.93,7.0,WNW,17.3,25.3,N/A,,Overcast,300,2012-11-26 03:55:00
11:14 PM,31.1,21.6,68,29.94,7.0,WNW,19.6,25.3,N/A,Snow,Light Snow,300,2012-11-26 04:14:00
11:35 PM,30.7,20.3,65,29.95,7.0,WNW,16.1,26.5,N/A,,Overcast,300,2012-11-26 04:35:00
11:54 PM,30.6,20.8,67,29.95,10.0,WNW,15.0,24.2,N/A,,Overcast,300,2012-11-26 04:54:00